GFSSGP_sfc_temp_336.txt.gz
Temp
74 79 82 73 68 68 63 64 69 68 70 73 75 75 73 70 68 65 76 77 80 81 82 80 74 75 75 74 74 74 73 73 73 73 72 72 72 71 71 70 70 70 71 72 72 72 72 71 70
79 77 78 71 58 60 63 67 66 71 73 75 75 74 73 66 71 72 76 76 81 82 82 81 72 74 74 74 73 73 72 72 72 72 72 71 71 71 70 70 69 70 71 71 71 71 70 69 69
78 73 69 65 56 61 63 67 70 71 73 73 71 74 72 66 72 74 76 79 81 81 82 80 72 73 73 73 72 72 72 71 71 71 71 70 70 70 69 69 69 69 70 70 71 69 69 68 68
77 64 58 61 53 63 64 69 70 71 72 74 75 68 71 71 71 73 74 79 80 78 77 72 72 72 72 72 72 71 70 70 70 70 70 69 69 69 68 68 68 68 69 70 70 69 70 69 69
73 64 46 46 57 64 68 69 70 70 72 73 73 66 66 69 71 72 75 79 79 76 76 75 70 71 71 71 71 70 70 69 69 68 68 68 68 67 67 67 67 68 68 69 68 69 68 68 68
63 60 46 44 53 64 68 69 70 71 71 71 71 69 65 67 68 70 77 78 79 75 71 71 65 67 69 69 69 69 69 68 67 67 66 66 66 66 65 65 66 67 67 68 68 68 67 67 66
62 60 44 45 53 61 64 69 69 70 71 68 72 65 66 64 67 71 75 77 77 75 70 71 69 66 64 65 66 66 66 66 65 64 64 63 62 63 63 63 64 65 66 66 67 67 66 65 65
67 61 45 44 50 58 66 67 67 70 67 71 69 66 64 64 67 69 71 70 69 69 69 68 67 68 72 71 62 63 63 63 62 61 60 59 62 61 60 62 62 64 64 65 65 65 65 64 63
66 55 44 46 52 58 68 65 68 71 68 65 63 64 65 64 66 65 64 65 66 66 66 67 68 71 71 70 65 62 61 61 62 63 60 64 67 67 67 60 60 61 62 63 64 64 63 62 65
60 51 48 54 60 59 64 64 62 66 65 61 62 61 61 64 65 64 65 64 64 63 64 65 67 70 70 70 68 68 68 68 67 66 66 67 67 65 64 61 58 60 59 62 64 64 64 66 70
54 55 55 54 57 62 62 60 59 61 57 55 55 56 57 58 58 62 64 64 65 64 65 67 70 70 69 68 69 69 69 68 67 66 65 65 66 66 67 68 68 68 62 69 69 69 70 68 68
49 57 60 58 58 60 57 59 54 54 52 57 58 58 58 56 55 56 58 60 62 64 65 67 69 69 67 70 69 69 68 67 67 66 64 65 65 65 66 67 68 68 69 67 68 68 68 68 67
51 54 57 59 57 55 57 54 53 52 56 58 59 59 59 60 58 60 61 62 62 62 62 68 68 68 67 67 68 67 66 66 65 65 65 65 65 64 66 66 67 67 69 68 68 68 68 67 67
55 56 53 57 58 56 54 51 54 53 56 56 56 56 57 56 57 59 60 60 63 61 59 65 67 67 67 66 66 66 66 66 65 65 64 64 65 64 64 63 63 65 67 68 68 67 67 67 67
52 50 54 54 56 54 59 52 48 52 55 54 54 55 52 51 53 52 57 58 61 58 58 60 65 66 65 65 65 65 64 65 64 64 64 64 64 63 62 62 61 62 65 67 68 67 68 68 69
48 49 44 53 56 56 56 52 49 53 54 52 52 52 50 49 50 51 54 56 57 56 56 58 63 64 63 64 65 64 64 65 64 64 65 64 63 61 62 61 61 62 63 66 66 66 65 66 68
45 37 42 47 56 54 54 53 49 51 52 51 50 50 49 50 51 53 53 54 54 55 55 56 60 62 62 63 64 63 63 63 64 65 64 63 60 60 61 62 61 62 61 62 64 65 65 64 66
42 42 42 43 52 54 52 51 48 50 51 49 48 48 48 48 48 52 52 52 53 54 55 56 59 61 61 63 63 64 63 63 64 63 58 58 58 59 60 60 60 60 60 61 61 62 65 64 64
50 47 45 46 52 50 52 52 48 49 50 49 47 47 47 47 49 52 53 53 52 53 53 55 57 58 62 62 62 61 60 60 60 58 57 57 56 57 59 59 60 60 59 58 60 59 59 61 63
49 45 45 49 50 48 46 48 49 48 49 52 49 47 46 46 49 50 51 52 52 52 53 53 54 57 58 60 60 61 60 56 55 56 54 54 54 55 57 56 56 57 58 58 58 57 57 58 58
48 46 44 44 48 46 45 45 44 47 47 48 49 49 48 47 46 48 48 49 50 48 49 50 52 54 56 59 60 59 60 57 53 52 52 52 52 53 53 54 54 54 55 53 54 53 54 54 57
44 52 49 47 45 38 48 36 40 47 43 44 46 46 47 46 46 47 47 47 46 45 47 49 50 52 53 56 57 56 54 50 49 50 50 50 50 51 50 51 51 51 52 52 52 52 52 52 47
49 52 50 49 45 44 42 38 48 45 41 42 46 46 47 47 47 45 45 44 45 46 46 48 48 48 50 52 53 53 50 50 49 49 48 49 49 50 50 49 49 50 51 50 50 50 50 50 47
54 50 48 47 46 32 42 40 43 40 45 49 48 47 46 44 45 44 45 44 44 46 46 46 46 46 47 49 50 50 49 48 48 48 49 49 50 50 49 50 49 50 51 50 51 51 51 50 49
51 47 34 32 31 33 43 39 45 47 48 50 48 46 46 46 43 43 43 43 43 43 43 45 45 43 45 46 46 47 46 46 45 46 46 47 47 47 46 47 47 47 48 49 49 48 48 48 46
48 48 39 27 30 37 39 35 45 42 42 44 49 48 44 42 42 40 41 41 40 41 41 42 41 41 42 43 43 44 44 44 44 44 45 45 45 45 45 45 45 46 47 47 47 46 47 47 45
47 41 52 39 33 34 42 44 48 38 37 42 43 41 40 39 39 38 38 38 39 39 40 41 40 39 40 40 41 41 43 42 42 42 43 42 43 44 43 44 43 43 44 44 45 43 42 44 43
49 54 40 41 29 29 40 39 44 39 38 37 37 38 40 39 39 38 37 37 38 38 39 39 39 38 38 39 40 40 39 40 41 41 40 40 41 42 42 42 41 41 42 43 42 41 41 41 41
45 43 45 46 44 34 32 42 50 47 44 39 39 40 39 37 37 38 37 37 37 38 38 37 37 37 37 37 38 37 37 38 39 38 39 39 39 40 40 40 40 40 40 40 40 39 39 39 38
52 49 48 40 35 40 39 41 43 42 43 43 40 39 39 39 38 37 36 36 36 37 37 36 36 36 36 37 37 36 37 37 37 37 37 38 38 39 39 40 39 39 38 38 38 37 37 36 35

GFSSGP_sfc_temp_339.txt.gz
Temp
79 86 88 83 70 70 66 67 76 72 73 78 80 80 75 73 68 62 81 81 85 84 81 80 74 75 75 74 74 73 73 73 73 72 72 72 72 71 71 70 70 70 71 72 72 71 70 69 69
83 82 82 71 65 61 66 73 71 75 76 80 79 79 78 67 76 74 77 81 85 85 84 81 72 74 74 73 73 72 72 72 72 72 71 71 71 70 70 70 69 70 71 71 72 70 71 69 69
78 77 72 69 60 61 65 72 74 75 78 78 75 80 77 69 76 76 79 82 84 84 83 80 71 73 73 72 72 71 71 71 71 71 70 70 70 69 69 69 69 69 70 71 71 70 70 70 70
78 72 66 58 55 66 69 73 75 75 77 78 80 70 73 76 75 76 79 81 79 78 78 72 71 72 72 72 71 71 70 70 70 69 69 69 69 68 68 68 68 69 69 69 69 70 69 69 68
79 72 50 52 57 68 72 74 75 75 76 77 77 69 68 71 72 76 79 80 77 74 74 73 70 71 71 71 70 70 69 69 68 68 68 67 67 67 67 67 67 68 68 69 69 69 68 68 67
69 67 56 47 60 68 72 74 75 76 77 76 76 72 66 68 70 75 80 80 78 73 72 71 65 67 68 69 69 68 68 67 67 66 66 65 65 65 65 65 66 67 67 68 68 68 67 67 66
68 63 55 50 61 64 68 74 74 75 75 70 77 69 67 66 70 76 79 79 75 72 71 70 69 66 64 65 65 66 66 65 65 64 63 63 63 64 63 64 64 65 66 66 66 66 66 66 65
73 67 53 48 52 62 69 71 72 73 69 76 74 69 64 66 69 74 74 73 72 71 70 70 70 72 73 70 61 62 63 63 63 62 62 62 63 64 62 63 62 64 64 65 65 66 66 66 65
71 61 53 52 51 61 70 69 71 75 71 66 66 65 62 66 67 67 66 67 68 68 68 69 72 74 73 72 66 63 62 63 64 66 63 66 69 68 69 61 61 63 63 64 65 66 66 65 67
66 60 57 60 59 60 65 67 67 69 68 65 62 61 60 63 65 64 64 64 65 67 67 69 71 72 72 74 72 71 71 71 69 68 68 68 69 67 66 62 61 62 63 64 67 68 67 68 71
62 60 60 57 57 63 65 62 65 68 60 60 59 57 57 57 59 61 62 64 66 67 66 69 71 72 72 71 72 71 71 70 69 67 67 67 69 68 69 69 69 69 64 69 70 70 70 69 69
52 63 63 58 59 59 61 64 59 60 57 61 61 60 59 57 57 58 59 60 60 65 65 70 71 70 70 73 72 71 69 69 68 67 66 67 67 67 67 66 67 65 65 66 69 69 69 69 69
56 56 63 63 60 60 60 58 58 57 61 63 63 62 61 60 60 61 62 63 62 61 64 69 70 70 70 70 70 69 69 68 67 67 66 67 66 64 63 62 63 63 65 66 68 68 68 68 68
57 57 57 61 61 59 56 55 60 57 61 61 61 61 62 61 61 64 64 65 63 58 59 66 70 70 70 69 68 68 67 68 67 66 66 66 63 62 62 62 62 63 64 66 68 68 68 69 69
54 53 55 55 58 56 57 51 54 58 59 59 59 59 57 56 58 57 61 62 60 56 58 61 66 69 68 67 68 67 67 67 66 66 65 64 63 61 61 61 62 63 65 65 68 68 69 69 70
50 50 45 55 55 56 58 52 53 58 59 57 58 57 55 53 53 55 57 59 59 57 56 60 64 66 67 67 67 67 67 67 66 65 63 62 61 61 62 62 61 62 64 64 66 66 66 67 67
47 40 42 48 58 56 54 54 55 58 59 58 58 56 54 54 55 56 56 57 57 57 57 58 62 65 65 66 66 65 65 66 65 61 61 60 60 61 60 60 60 60 61 62 62 62 63 64 65
41 40 44 46 56 56 54 53 52 55 57 58 58 55 54 52 52 55 55 55 56 57 58 58 61 64 64 65 65 65 65 64 60 59 58 58 58 60 60 60 60 61 61 61 62 62 62 63 63
53 48 44 49 54 52 53 54 57 55 55 57 56 55 53 52 54 56 56 56 56 57 57 59 60 61 64 63 62 61 56 57 57 56 56 56 57 57 57 58 58 59 59 59 60 61 60 60 62
52 48 47 52 51 48 49 50 58 56 54 58 57 55 53 51 53 54 55 56 56 56 56 57 59 60 61 62 62 59 58 57 56 55 54 55 56 56 57 56 55 56 56 55 55 55 57 58 59
51 49 48 48 50 49 46 43 50 56 55 57 59 57 54 52 52 53 53 54 54 52 53 54 56 58 59 60 60 58 58 56 55 54 53 53 54 53 53 53 54 54 55 53 53 53 52 51 54
47 56 53 49 45 36 48 35 47 53 50 52 53 54 53 53 53 54 52 52 51 50 52 53 54 54 56 59 58 57 56 53 53 52 53 52 53 53 53 53 54 54 54 53 53 54 52 51 46
50 55 52 51 46 44 43 36 46 53 49 49 52 53 53 53 52 51 52 50 50 49 50 52 52 52 53 56 58 57 55 53 53 53 51 53 53 52 52 52 52 53 53 53 52 53 52 51 49
58 53 51 51 47 32 44 39 43 45 50 53 54 54 53 52 52 51 51 49 48 49 49 50 50 50 51 53 54 54 53 52 51 52 51 51 51 50 50 50 50 51 51 51 51 51 50 50 49
53 48 35 33 32 34 47 43 46 56 56 57 57 54 54 52 50 48 46 46 47 47 48 49 48 47 49 50 50 50 50 50 49 49 49 48 47 46 46 48 47 48 49 49 49 49 47 47 45
49 49 39 29 31 39 45 38 47 53 49 53 53 57 53 49 49 47 47 47 46 46 46 47 46 45 46 46 46 48 48 47 47 47 47 46 45 45 46 46 46 46 47 47 46 46 46 45 43
49 43 54 43 41 35 44 49 55 48 45 48 50 53 50 48 48 46 46 45 44 44 44 45 43 43 43 44 44 45 45 45 44 45 45 44 45 45 44 44 43 44 45 45 44 43 43 43 42
51 57 41 42 29 30 42 45 47 48 48 45 46 48 48 47 46 43 42 42 43 43 42 43 43 41 42 42 43 42 41 42 42 42 41 42 42 43 42 42 42 42 43 43 43 42 42 40 41
47 46 48 49 44 35 34 44 53 52 53 48 47 46 46 44 43 41 41 41 41 40 41 40 40 40 39 40 40 39 39 40 41 40 40 40 41 42 42 42 41 41 41 42 41 40 39 38 38
53 49 49 41 37 43 41 41 54 52 51 52 49 47 47 45 43 42 40 40 39 39 40 39 39 38 39 39 39 38 39 39 39 39 39 40 40 41 41 42 41 40 40 40 39 38 38 36 36

GFSSGP_sfc_temp_342.txt.gz
Temp
77 84 81 74 60 60 57 60 70 67 67 69 75 71 65 67 63 54 73 77 80 77 77 75 74 74 74 74 73 73 72 73 73 72 72 72 71 71 71 70 70 71 72 72 72 71 71 70 70
79 81 74 68 57 54 57 66 65 68 71 74 73 72 68 61 70 69 70 79 81 79 79 76 72 73 73 73 72 72 72 72 72 71 71 71 71 70 70 70 70 71 71 72 71 71 71 71 70
79 78 65 61 56 54 55 66 67 70 72 71 67 71 68 65 71 71 77 80 81 79 77 73 71 73 73 72 72 71 71 71 70 70 70 70 69 69 69 69 69 70 71 70 70 71 70 69 69
76 71 64 57 52 60 64 67 71 69 71 72 71 59 67 68 69 74 77 77 74 73 72 70 71 72 72 71 71 71 70 70 69 69 69 68 68 68 67 68 68 69 70 70 70 69 69 68 68
75 67 51 52 54 62 67 70 71 70 70 70 70 61 61 67 72 76 76 75 71 70 70 70 70 71 71 70 70 70 69 68 68 68 67 67 67 67 66 67 67 68 69 69 69 69 68 68 68
64 63 51 46 56 65 67 69 70 69 71 69 66 62 61 67 70 74 76 73 72 69 68 68 65 67 68 68 68 68 67 67 67 66 66 66 66 66 66 66 66 67 67 68 68 68 68 67 67
64 58 53 52 57 62 65 69 65 66 66 63 69 60 61 64 68 72 73 71 70 69 68 67 67 65 64 64 65 65 65 65 65 65 65 65 64 65 65 65 65 66 66 67 67 67 67 68 67
65 62 51 50 53 58 63 64 68 66 62 68 67 58 58 63 69 70 70 70 68 68 68 67 68 69 64 62 62 63 64 64 65 64 64 63 64 65 64 63 63 65 66 66 67 68 68 68 68
69 55 49 50 53 59 67 62 66 70 61 59 59 57 57 65 67 66 65 65 65 66 66 67 68 66 65 64 62 62 63 63 65 64 63 62 61 62 63 61 63 64 66 66 67 69 69 67 66
61 55 55 58 58 58 62 61 63 62 60 57 57 60 59 62 64 63 63 63 63 63 64 66 68 65 65 70 65 63 65 62 61 60 60 61 61 61 62 60 62 64 63 66 68 68 67 64 61
61 56 58 56 57 60 62 59 61 60 55 55 53 56 56 57 58 60 59 59 63 63 64 67 65 64 63 62 62 60 60 59 59 59 59 60 61 59 59 58 60 62 62 60 62 62 61 61 60
54 62 61 58 57 58 59 63 55 55 53 60 59 60 57 56 57 58 58 59 59 61 64 67 64 63 62 62 62 60 59 58 57 58 59 58 56 56 55 55 57 60 61 62 59 58 60 61 62
53 55 62 60 58 58 59 58 55 54 59 61 61 61 59 59 59 60 61 61 60 60 62 66 64 63 63 62 60 60 58 57 58 58 59 58 55 56 58 59 60 61 61 61 58 58 59 60 61
58 57 56 59 59 59 55 53 58 53 59 59 61 60 59 59 59 62 62 62 59 58 58 63 65 63 63 60 59 58 58 58 58 57 60 61 60 58 58 58 59 59 61 62 61 58 58 58 60
55 51 54 54 56 55 56 49 52 56 58 57 57 54 54 54 55 53 57 57 54 56 58 60 64 64 61 60 59 58 58 59 57 59 60 60 59 58 58 57 58 59 61 61 61 58 59 58 60
50 50 44 53 55 54 52 48 53 57 55 55 55 53 52 51 52 52 55 56 55 56 57 59 63 63 61 59 58 59 58 57 57 58 58 58 59 58 58 57 57 58 59 59 59 60 56 56 56
45 40 42 48 56 53 52 49 53 56 56 54 52 52 52 51 52 52 55 56 56 56 57 57 60 62 61 59 58 57 57 57 58 58 57 57 57 58 57 57 57 58 58 58 59 59 56 54 56
39 40 43 44 53 54 49 48 50 53 54 54 53 51 50 50 51 53 52 55 56 56 57 57 59 61 59 58 57 58 57 56 56 55 55 55 55 56 57 56 56 57 55 54 54 55 54 54 54
52 46 44 49 52 49 50 50 52 52 51 52 53 51 50 49 52 53 52 52 55 55 56 57 58 59 57 57 57 54 53 54 53 53 54 54 54 54 54 54 53 53 54 52 55 52 55 54 52
50 47 45 51 52 46 45 45 53 54 51 52 54 51 50 49 49 52 51 51 51 52 54 55 56 55 57 58 56 55 54 53 53 52 52 53 50 50 52 51 52 52 52 51 52 52 52 52 51
48 46 47 47 48 46 42 40 45 52 53 54 55 55 53 50 48 50 51 49 49 47 48 51 52 55 57 58 57 55 54 53 52 50 50 50 49 49 49 49 49 49 49 51 52 51 48 47 50
44 53 50 49 44 35 44 31 41 48 50 50 53 53 51 50 51 50 50 48 47 46 47 49 50 50 54 56 55 54 52 49 50 48 47 47 48 48 48 48 48 48 49 48 51 51 46 46 42
47 53 49 47 44 41 40 33 38 48 46 48 50 51 50 51 50 48 48 49 47 47 45 46 48 48 49 52 55 53 51 48 47 47 46 46 46 46 47 47 46 46 47 47 47 45 45 45 42
55 49 47 45 41 28 37 33 32 38 46 50 51 51 51 50 49 49 48 47 45 45 46 45 46 45 48 48 49 49 47 47 45 46 44 44 43 43 44 46 45 45 45 45 45 44 43 41 41
49 43 27 29 28 26 42 35 38 48 50 51 50 50 50 49 48 46 44 43 43 43 44 45 44 44 45 45 46 46 46 45 44 44 43 42 41 41 42 43 42 42 43 43 44 42 41 39 38
45 43 31 25 27 30 40 30 39 47 45 46 48 49 50 47 46 44 42 42 42 43 44 43 43 42 43 42 42 43 44 42 43 42 42 41 41 40 41 41 41 42 42 41 42 41 40 38 36
44 38 47 36 32 29 35 41 48 43 41 42 43 47 46 44 43 42 42 42 41 41 42 43 41 41 41 41 40 41 41 41 40 41 42 39 41 42 41 40 40 40 40 40 40 37 37 36 35
46 49 36 36 20 23 32 33 39 41 42 41 42 43 43 43 42 41 40 39 39 40 40 41 40 39 39 39 39 39 39 39 40 40 39 39 39 40 39 39 39 39 38 38 37 36 35 34 34
41 39 42 42 36 29 28 33 41 44 44 41 41 44 42 42 40 38 37 38 38 38 38 39 39 38 38 38 38 38 37 39 39 38 38 38 38 39 38 38 37 37 36 36 35 34 34 32 31
48 44 45 35 31 35 34 35 50 46 47 46 43 43 42 41 39 37 36 36 35 35 36 35 37 37 37 38 37 37 37 38 37 36 37 38 37 38 37 37 37 36 35 35 34 32 32 31 29

GFSSGP_sfc_temp_345.txt.gz
Temp
69 73 70 68 58 53 49 54 57 61 61 62 67 62 59 60 57 51 72 74 74 72 74 73 73 74 73 73 73 72 72 72 72 72 72 71 71 70 71 71 71 71 72 71 71 71 72 70 71
68 75 67 60 55 46 49 53 55 60 65 66 66 63 60 58 65 66 69 75 76 74 73 72 71 73 73 72 72 72 72 71 71 71 71 70 70 70 70 70 70 71 70 71 72 71 70 69 69
71 72 60 54 54 47 48 52 58 63 67 66 62 63 60 59 69 71 72 77 77 75 72 71 71 72 72 72 71 71 71 70 70 70 70 69 69 69 69 69 70 71 71 70 70 70 70 69 69
69 65 59 51 49 52 53 57 62 61 67 66 61 55 61 66 69 72 73 73 70 70 71 70 71 72 71 71 71 70 70 69 69 69 69 68 68 68 68 68 69 69 69 69 70 70 69 69 69
66 59 48 50 53 55 58 64 62 61 63 60 61 55 58 67 72 73 71 70 67 67 69 70 70 70 71 70 70 69 69 68 68 68 68 68 68 67 67 67 68 68 69 70 70 69 69 69 68
58 56 46 47 53 56 62 63 61 61 62 61 58 56 59 67 69 70 70 68 69 66 67 67 65 67 68 68 68 68 68 67 68 68 67 67 67 67 67 66 67 67 68 68 69 69 69 69 69
56 52 47 48 54 55 61 62 58 57 58 58 61 54 60 64 67 68 68 68 67 67 66 66 65 64 64 65 65 66 67 67 66 67 67 65 65 66 65 65 66 67 68 68 68 70 69 70 69
59 54 46 48 52 53 61 60 58 61 54 61 59 52 57 62 66 68 67 66 66 66 66 65 64 64 60 60 63 64 65 65 65 65 64 64 64 64 64 62 64 67 68 69 68 69 69 68 68
63 48 44 48 51 54 59 58 60 63 53 55 58 56 58 64 66 64 63 63 64 65 65 66 66 62 61 60 61 62 63 63 62 61 61 60 58 59 61 61 64 66 66 68 69 69 67 65 64
57 48 48 53 53 53 59 60 57 55 55 55 57 58 60 62 63 61 61 60 61 62 64 66 65 62 62 67 60 60 62 58 58 57 57 58 58 57 59 58 61 62 63 64 66 67 65 61 59
58 49 53 52 56 56 60 57 55 55 50 51 54 54 57 58 59 58 58 59 61 62 64 65 62 60 60 60 58 57 56 55 55 56 56 56 56 54 54 54 54 59 59 57 59 59 58 59 58
53 57 56 54 56 56 57 58 52 51 50 56 57 58 57 56 57 58 58 59 60 62 64 64 61 61 59 58 57 57 56 55 54 55 56 54 52 53 54 55 60 59 58 56 55 56 58 58 60
54 54 56 55 54 55 57 56 53 51 55 57 59 59 58 57 57 59 60 60 61 60 61 64 63 60 60 58 56 55 55 54 55 55 57 55 56 56 58 58 59 59 56 56 55 55 56 57 59
54 53 52 56 54 54 53 53 54 54 55 55 58 56 57 57 58 59 60 58 58 58 58 63 63 61 60 56 56 55 55 55 54 57 59 60 58 57 57 57 57 58 60 58 56 55 55 56 60
55 48 51 51 53 51 54 49 49 52 55 53 52 51 52 55 56 55 56 54 55 56 58 60 62 63 61 57 56 55 56 55 54 58 59 59 58 57 57 56 57 58 60 60 56 56 56 55 61
48 49 41 52 54 52 51 44 48 52 51 50 50 49 49 49 50 50 53 53 53 55 56 59 63 62 60 58 55 55 54 52 53 57 57 56 57 57 57 56 56 58 58 58 58 55 53 52 56
46 38 39 44 52 50 51 46 50 52 51 50 48 47 48 48 49 50 51 52 52 54 56 57 60 60 60 58 55 53 53 53 56 55 55 55 55 56 56 55 55 56 53 52 54 52 51 50 51
38 39 40 41 49 50 47 46 49 51 50 49 48 47 47 47 47 50 50 51 52 52 55 57 59 60 59 57 53 53 54 54 54 53 53 53 52 53 53 51 51 51 51 51 51 51 52 49 49
49 44 40 44 48 47 46 47 49 49 48 47 48 47 47 47 49 50 50 50 50 50 52 56 56 57 58 53 54 53 52 52 51 52 52 50 48 49 49 49 49 49 50 53 52 48 49 49 49
47 43 40 45 47 44 43 42 48 49 48 50 51 49 47 47 48 49 48 48 49 49 50 52 54 54 54 56 55 54 53 52 51 50 49 48 47 48 50 47 48 48 48 52 51 49 47 47 48
44 42 43 43 44 44 39 36 42 49 50 50 52 53 51 48 47 48 48 47 47 46 47 49 50 52 54 56 55 54 53 52 50 47 45 46 47 47 47 46 46 46 47 49 48 45 45 43 46
40 50 48 45 41 30 40 29 35 44 46 49 51 50 50 48 48 49 48 45 45 44 46 47 48 49 53 56 54 53 51 49 45 44 44 44 45 45 45 45 45 45 45 44 44 45 43 42 38
44 50 47 45 39 40 34 28 35 41 42 44 49 51 49 49 48 47 47 47 45 44 43 45 46 47 49 53 54 52 50 49 46 44 43 43 43 43 44 44 44 44 44 43 42 40 40 40 38
51 47 45 42 38 23 34 31 29 36 44 45 47 49 47 47 47 47 47 45 43 43 43 43 44 44 46 47 50 51 48 45 43 43 42 40 41 41 42 43 42 42 42 42 40 39 38 38 38
47 39 24 23 28 25 37 32 34 44 48 48 47 47 45 47 46 44 43 42 41 41 42 43 43 42 44 44 44 44 45 44 43 43 42 40 39 39 40 40 40 39 40 41 40 38 37 36 35
41 39 28 22 24 27 36 29 37 46 44 44 45 46 46 45 46 43 42 41 41 41 41 42 41 41 41 42 41 42 43 42 42 42 41 39 38 39 41 39 39 40 40 39 38 37 36 35 34
39 36 42 33 27 26 31 36 44 40 42 41 42 43 43 43 43 41 40 41 40 40 40 40 39 40 40 40 40 40 40 40 40 40 40 40 40 40 39 39 38 38 38 37 37 35 34 34 33
43 46 33 31 18 20 28 29 36 39 42 40 39 39 38 39 38 38 39 38 38 39 38 38 39 38 38 38 38 38 38 38 39 39 38 38 38 38 37 37 37 37 36 36 35 34 33 32 33
38 37 39 38 32 27 25 30 41 42 44 42 39 41 38 38 38 38 36 36 37 36 36 36 36 36 36 36 36 36 37 38 38 38 37 37 38 38 37 37 37 36 35 35 34 32 32 31 30
44 41 41 31 29 30 31 34 47 45 44 44 41 41 39 40 37 36 36 35 34 34 34 34 34 34 35 36 36 36 36 37 36 37 37 37 37 37 37 36 35 35 34 33 32 32 30 29 28